Location: Goettingen
(51.5300°N, 9.9433°E)
Time: 22:39:15
(UTC+02:00)

ISS - Pass Details

Date: 27 July 2021
Orbit: 419 x 421 km, 51.6° (Epoch: 28 July)

Event Time Altitude Azimuth Distance (km) Brightness Sun altitude
Rises 23:55:39 0° 281° (W) 2,372 0.6 -16.5°
Reaches altitude 10° 23:58:15 10° 261° (W) 1,504 -0.8 -16.6°
Enters shadow 00:00:07 17° 227° (SW) 1,159 -1.7 -16.7°
